STARLINK-4378, 53476

Orbit data source: Space-Track

STARLINK-4378, 53476 is a payload satellite owned by SpaceX/Seattle (US) in SSO that was launched on Fri, 12 Aug 2022 UTC via an FALCON 9 launch vehicle from the Air Force Western Test Range (AFWTR). Payload-class satellites include a variety of spacecraft equipped with specific instruments for various scientific and technological missions. These include communications satellites like Starlink; space stations such as the ISS; scientific satellites like the Hubble; Earth observation satellites from companies like Planet Labs, Umbra, and HawkEye 360; GPS; miniature CubeSats for education and research; and military/defense satellites.

Loading next visibility...
Identifier
53476, 2022-099M
Orbit
SSO
Country
Flag of USUS
Related business
Manufacturer
SpaceX/Seattle
Mission
Operational Commercial Communications
Bus & Motor
STARLINK, Unknown motor
Mass
300 kg wet, ~275 kg dry
Launch date (UTC)
2022-08-12 (3 years ago)
Launch vehicle
FALCON 9
Launch site
Air Force Western Test Range (AFWTR)
Object type
Payload
Rocket body
Debris
Shape & HBR
Box + 1 Pan, 10.1 m
Radar Cross Section
13.562 m², Large (>1 m²)

Expand to show TLE details & history
Last TLE update: 15 hours ago

TLE from 15 hours ago
0 STARLINK-4378
1 53476U 22099M   25293.34482141  .00001151  00000-0  94163-4 0  9990
2 53476  97.6023  52.8258 0002181  91.2864 268.8610 15.01258447174927
Epoch: 2025-10-20T08:16Z
TLE epoch observation values (Epoch: 2025-10-20T08:16:32.569Z)
Latitude
-0.00007°
Longitude
-100.35837°
Altitude
566.104 km
Speed
7.578 km/s
True Right ascension
03h 31m 18s
True Declination
0° 00' 00"
Sunlit
Object was in full shadow at epoch
Visualization orbit readout
Latitude
Unknown
Longitude
Unknown
Altitude
Unknown
Speed
Unknown
Apparent Right ascension
Unknown
Apparent Declination
Unknown
Sunlit
N/A
Visualization observer readout
Local Sidereal Time
18:16:01
Azimuth
Unknown
Elevation
Unknown
Doppler factor
Unknown
Orbital elements
Apogee altitude
561.527 km
Perigee altitude
558.501 km
Semi-major axis
6,938.151 km
Eccentricity
0.00022
Inclination
97.6023°
RAAN
52.8258°
Arg. of periapsis
91.2864°
True anomaly
268.83601°
Mean anomaly
268.861°
Eccentric anomaly
268.84851°
Mean motion
3.75558 °/min
Orbital period
95.86 mins
BSTAR
0.000094163
Loading maneuver chart data...
Computing Atmospheric mass density...
Loading historical data...
Loading historical data...
Loading historical data...
Loading historical data...
Loading historical data...
Loading historical data...
Loading historical data...

Documentation

Showing up to 5 results
|